Shelby County Airport
KEET : rendu visible

Aérodrome :











RETROUVEZ-NOUS SUR...

 
LOGIN :

S'inscrire | Disclaimer

   EN    FR    IT 

 









Légende :    VFR   VFR Marginal   IFR   IFR Intensif   IFR Très Intensif
Visi : 
Plafond : 
>= 8 km
>= 3000ft
5 à 8 km
1000 à 3000 ft
1500m à 5 km
500 à 1000 ft
800 à 1500m
200 à 500 ft
< 800m
< 200 ft
Symboles :   Orages  Brouillard  Fortes neiges  Fortes précipitations  Vent > 20 kt






- Altitude de l'aérodrome : 586 ft


KEET - Shelby County

DERNIER METAR :
  • 050653Z AUTO 00000KT 10SM CLR 03/02 A3017 RMK AO2 SLP217 T00330017

METARs EXPIRÉS :
  • 050553Z AUTO 26004KT 10SM CLR 03/02 A3016 RMK AO2 SLP213 T00330022 10067 20033 401170033 53001
  • 050453Z AUTO 27003KT 10SM CLR 03/03 A3015 RMK AO2 SLP211 T00330028

TAF KEET
Valide du 05 à 06h jusqu'au 06 à 06h UTC


050520Z 0506/0606 VRB03KT P6SM FEW250
FIR KZTL / Amérique du Nord



MET'MAP, la Météo Aéronautique d'un coup d'oeil ! - Copyright ORBIFLY Décembre 2007 - Disclaimer

ORBIFLY MET'MAP TEAM :

Programmation & Développement : Alexandra Zaïnal
Sur une idée originale de : Baudouin d'Aumeries
Assistance à la programmation : Marc-Olivier Méhu
Soutien technique & logistique : Manuel Goepfert

Contact : metmap@orbifly.com




SOURCES & CREDITS :

   NOAA       Earth
Advisory